This is the latest recevied weather packets stored in our database for station/object NK7E-2. If no packets are shown the sender has not sent any weather packets the latest 10 day(s).
| Time | Temp. | Humidity | Pressure | Rain* | Wind** | Luminosity | Snow |
|---|---|---|---|---|---|---|---|
| 1787872817 | 39.44° C | 18% | 1026.8 hPa | 0 mm | - | - | - |
| 1787872217 | 40° C | 17% | 1027 hPa | 0 mm | - | - | - |
| 1787871617 | 40.56° C | 15% | 1026.9 hPa | 0 mm | - | - | - |
| 1787871017 | 40.56° C | 16% | 1026.9 hPa | 0 mm | - | - | - |
| 1787870417 | 40° C | 17% | 1027.1 hPa | 0 mm | - | - | - |
| 1787869817 | 39.44° C | 17% | 1027 hPa | 0 mm | - | - | - |
| 1787869217 | 41.11° C | 19% | 1027.6 hPa | 0 mm | - | - | - |
| 1787868617 | 40.56° C | 18% | 1027.6 hPa | 0 mm | - | - | - |
| 1787868017 | 40.56° C | 18% | 1027.6 hPa | 0 mm | - | - | - |
| 1787867417 | 40.56° C | 18% | 1027.8 hPa | 0 mm | - | - | - |
| 1787866817 | 40.56° C | 18% | 1028.4 hPa | 0 mm | - | - | - |
| 1787866217 | 40° C | 18% | 1028.2 hPa | 0 mm | - | - | - |
| 1787865616 | 40° C | 19% | 1028.8 hPa | 0 mm | - | - | - |
| 1787865016 | 39.44° C | 19% | 1028.7 hPa | 0 mm | - | - | - |
| 1787864416 | 39.44° C | 19% | 1028.8 hPa | 0 mm | - | - | - |
| 1787863816 | 40° C | 19% | 1029.6 hPa | 0 mm | - | - | - |
| 1787863217 | 40° C | 19% | 1029.4 hPa | 0 mm | - | - | - |
| 1787862616 | 39.44° C | 19% | 1029.7 hPa | 0 mm | - | - | - |
| 1787862016 | 39.44° C | 20% | 1029.8 hPa | 0 mm | - | - | - |
| 1787861416 | 39.44° C | 20% | 1029.9 hPa | 0 mm | - | - | - |
| 1787860816 | 38.33° C | 21% | 1030.3 hPa | 0 mm | - | - | - |
| 1787860216 | 39.44° C | 20% | 1030.8 hPa | 0 mm | - | - | - |
| 1787859616 | 38.33° C | 21% | 1030.5 hPa | 0 mm | - | - | - |
| 1787859016 | 38.33° C | 21% | 1030.7 hPa | 0 mm | - | - | - |
| 1787858416 | 38.33° C | 21% | 1030.6 hPa | 0 mm | - | - | - |
* Rain latest hour (hover to see other rain measurements)
** Current wind speed in m/s (hover to see current wind gust speed)